QPF
0.00 0.00 0.00 0.02 0.04 0.01 0.00 0.00 0.01 0.02 0.02 0.00 0.00 0.00 0.01 0.01 0.00 0.00 0.00 0.00 0.00 0.00 0.00 0.00 0.00 0.00 0.00 0.00 0.00 0.00 0.00 0.00 0.00 0.00 0.00 0.00 0.00 0.00 0.00 0.00 0.02 0.00 0.00
0.00 0.00 0.00 0.03 0.03 0.00 0.00 0.00 0.00 0.02 0.01 0.00 0.00 0.00 0.01 0.02 0.00 0.00 0.00 0.00 0.00 0.00 0.00 0.00 0.00 0.00 0.00 0.00 0.00 0.00 0.00 0.00 0.00 0.00 0.00 0.01 0.00 0.00 0.00 0.00 0.00 0.00 0.00
0.00 0.00 0.00 0.01 0.00 0.00 0.00 0.00 0.00 0.00 0.00 0.00 0.00 0.00 0.01 0.01 0.00 0.00 0.00 0.00 0.00 0.00 0.00 0.00 0.00 0.00 0.00 0.00 0.01 0.02 0.03 0.01 0.00 0.00 0.01 0.00 0.00 0.00 0.00 0.00 0.00 0.00 0.00
0.00 0.00 0.00 0.00 0.00 0.00 0.00 0.00 0.00 0.00 0.00 0.00 0.00 0.00 0.00 0.01 0.00 0.00 0.00 0.00 0.00 0.00 0.00 0.00 0.00 0.00 0.00 0.00 0.00 0.00 0.01 0.00 0.00 0.00 0.00 0.00 0.00 0.00 0.00 0.00 0.00 0.00 0.00
0.00 0.00 0.00 0.00 0.00 0.00 0.00 0.00 0.00 0.00 0.00 0.00 0.00 0.00 0.00 0.00 0.00 0.00 0.00 0.00 0.00 0.00 0.00 0.00 0.00 0.00 0.00 0.00 0.01 0.03 0.02 0.00 0.00 0.00 0.00 0.00 0.00 0.00 0.00 0.00 0.00 0.00 0.00
0.00 0.00 0.00 0.00 0.00 0.00 0.00 0.00 0.00 0.00 0.00 0.00 0.00 0.00 0.00 0.00 0.00 0.00 0.00 0.00 0.00 0.00 0.00 0.00 0.00 0.00 0.00 0.01 0.03 0.00 0.00 0.00 0.00 0.00 0.00 0.00 0.00 0.00 0.00 0.04 0.00 0.00 0.00
0.00 0.00 0.00 0.00 0.00 0.00 0.00 0.00 0.00 0.00 0.00 0.00 0.00 0.00 0.00 0.00 0.00 0.00 0.00 0.00 0.00 0.00 0.00 0.00 0.00 0.00 0.00 0.00 0.01 0.00 0.00 0.00 0.00 0.00 0.00 0.00 0.00 0.00 0.00 0.01 0.00 0.00 0.00
0.00 0.00 0.00 0.00 0.00 0.00 0.00 0.00 0.00 0.00 0.00 0.00 0.00 0.00 0.00 0.01 0.00 0.02 0.01 0.01 0.01 0.00 0.00 0.03 0.02 0.00 0.00 0.00 0.00 0.00 0.00 0.00 0.00 0.00 0.00 0.00 0.00 0.00 0.00 0.00 0.00 0.00 0.00
0.00 0.00 0.00 0.00 0.00 0.00 0.00 0.00 0.00 0.00 0.00 0.00 0.00 0.00 0.00 0.02 0.01 0.00 0.01 0.04 0.03 0.00 0.01 0.05 0.01 0.00 0.00 0.00 0.00 0.00 0.00 0.00 0.00 0.00 0.00 0.00 0.00 0.00 0.00 0.00 0.00 0.00 0.00
0.00 0.00 0.00 0.00 0.00 0.00 0.00 0.00 0.00 0.00 0.00 0.00 0.00 0.00 0.01 0.01 0.01 0.02 0.02 0.02 0.05 0.03 0.00 0.02 0.00 0.00 0.00 0.00 0.00 0.00 0.00 0.00 0.00 0.00 0.00 0.00 0.00 0.00 0.00 0.00 0.00 0.00 0.00
0.00 0.00 0.00 0.00 0.00 0.00 0.00 0.00 0.00 0.00 0.00 0.00 0.01 0.02 0.01 0.00 0.01 0.02 0.00 0.01 0.09 0.12 0.02 0.01 0.00 0.00 0.00 0.00 0.00 0.00 0.00 0.00 0.00 0.00 0.00 0.00 0.00 0.00 0.01 0.00 0.00 0.00 0.00
0.00 0.00 0.00 0.00 0.00 0.00 0.00 0.03 0.01 0.03 0.03 0.04 0.02 0.02 0.01 0.00 0.00 0.07 0.06 0.04 0.03 0.06 0.05 0.03 0.01 0.00 0.00 0.00 0.00 0.00 0.00 0.00 0.00 0.00 0.00 0.00 0.00 0.00 0.00 0.00 0.00 0.00 0.00
0.00 0.00 0.00 0.00 0.00 0.00 0.00 0.02 0.03 0.02 0.07 0.15 0.05 0.16 0.02 0.07 0.09 0.09 0.11 0.02 0.02 0.01 0.02 0.01 0.00 0.00 0.00 0.00 0.00 0.00 0.00 0.00 0.00 0.00 0.00 0.00 0.00 0.00 0.00 0.00 0.00 0.00 0.00
0.00 0.00 0.00 0.00 0.00 0.00 0.00 0.00 0.00 0.00 0.00 0.06 0.03 0.08 0.11 0.06 0.03 0.05 0.04 0.00 0.01 0.01 0.01 0.00 0.00 0.00 0.00 0.00 0.00 0.00 0.00 0.00 0.00 0.00 0.00 0.00 0.00 0.00 0.00 0.00 0.00 0.00 0.00
0.00 0.00 0.00 0.00 0.00 0.00 0.00 0.00 0.00 0.00 0.00 0.01 0.07 0.05 0.10 0.07 0.04 0.04 0.04 0.01 0.00 0.00 0.01 0.01 0.00 0.00 0.00 0.00 0.00 0.00 0.00 0.00 0.00 0.00 0.00 0.00 0.00 0.00 0.00 0.00 0.00 0.00 0.00
0.00 0.00 0.00 0.00 0.00 0.00 0.00 0.01 0.00 0.00 0.00 0.00 0.00 0.02 0.11 0.04 0.06 0.03 0.04 0.01 0.00 0.01 0.00 0.01 0.00 0.00 0.00 0.00 0.00 0.00 0.00 0.00 0.00 0.00 0.00 0.00 0.00 0.00 0.00 0.00 0.00 0.00 0.00
0.00 0.00 0.00 0.00 0.00 0.00 0.00 0.00 0.00 0.00 0.00 0.00 0.00 0.01 0.02 0.02 0.06 0.05 0.05 0.01 0.00 0.00 0.01 0.02 0.01 0.00 0.00 0.00 0.00 0.00 0.00 0.00 0.00 0.00 0.00 0.00 0.00 0.00 0.00 0.00 0.00 0.00 0.00
0.00 0.00 0.00 0.00 0.00 0.00 0.00 0.00 0.00 0.00 0.00 0.00 0.00 0.00 0.00 0.01 0.02 0.01 0.01 0.00 0.00 0.00 0.00 0.00 0.00 0.00 0.00 0.00 0.00 0.00 0.00 0.00 0.00 0.00 0.00 0.00 0.00 0.00 0.00 0.00 0.00 0.00 0.00
0.00 0.00 0.00 0.00 0.00 0.00 0.00 0.00 0.00 0.00 0.00 0.00 0.00 0.00 0.00 0.01 0.00 0.00 0.00 0.00 0.00 0.00 0.00 0.00 0.00 0.00 0.00 0.00 0.00 0.00 0.00 0.00 0.00 0.00 0.00 0.00 0.00 0.00 0.00 0.00 0.01 0.00 0.00
0.00 0.00 0.00 0.00 0.00 0.00 0.00 0.00 0.00 0.00 0.00 0.00 0.00 0.00 0.01 0.00 0.00 0.00 0.00 0.01 0.02 0.00 0.00 0.00 0.00 0.00 0.00 0.00 0.00 0.00 0.00 0.00 0.00 0.00 0.00 0.00 0.00 0.00 0.00 0.00 0.00 0.00 0.00
0.00 0.00 0.00 0.00 0.00 0.00 0.00 0.00 0.00 0.00 0.00 0.00 0.00 0.00 0.00 0.00 0.00 0.00 0.00 0.03 0.08 0.05 0.02 0.01 0.00 0.00 0.00 0.00 0.00 0.00 0.00 0.00 0.00 0.00 0.00 0.00 0.00 0.00 0.00 0.00 0.00 0.00 0.00
0.00 0.00 0.00 0.00 0.00 0.00 0.00 0.00 0.00 0.00 0.00 0.00 0.00 0.00 0.00 0.00 0.00 0.00 0.00 0.00 0.05 0.10 0.10 0.15 0.11 0.01 0.00 0.00 0.00 0.00 0.00 0.00 0.00 0.00 0.00 0.00 0.00 0.00 0.00 0.00 0.00 0.00 0.00
0.00 0.00 0.00 0.00 0.01 0.00 0.00 0.00 0.00 0.00 0.00 0.00 0.00 0.00 0.00 0.00 0.00 0.00 0.00 0.00 0.08 0.07 0.05 0.16 0.16 0.06 0.00 0.01 0.00 0.00 0.00 0.00 0.00 0.00 0.00 0.00 0.00 0.00 0.00 0.00 0.00 0.00 0.00
0.00 0.00 0.00 0.01 0.01 0.02 0.02 0.00 0.00 0.00 0.00 0.00 0.00 0.00 0.00 0.00 0.00 0.00 0.00 0.00 0.02 0.02 0.05 0.05 0.10 0.10 0.12 0.11 0.09 0.01 0.00 0.01 0.00 0.00 0.00 0.00 0.01 0.00 0.00 0.00 0.00 0.00 0.00
0.00 0.00 0.00 0.01 0.05 0.11 0.16 0.05 0.05 0.00 0.00 0.00 0.00 0.00 0.00 0.00 0.00 0.00 0.00 0.00 0.00 0.00 0.01 0.02 0.04 0.10 0.05 0.09 0.11 0.17 0.08 0.07 0.06 0.01 0.00 0.00 0.00 0.00 0.00 0.00 0.00 0.00 0.00
0.00 0.00 0.00 0.01 0.05 0.08 0.13 0.18 0.16 0.08 0.02 0.05 0.02 0.00 0.00 0.00 0.00 0.00 0.00 0.00 0.00 0.00 0.01 0.01 0.04 0.03 0.04 0.06 0.04 0.06 0.04 0.07 0.04 0.03 0.03 0.00 0.00 0.00 0.00 0.00 0.00 0.00 0.00
MSLP
1009.29 1010.00 1011.04 1011.20 1011.52 1011.97 1012.17 1012.48 1012.74 1012.97 1013.26 1013.45 1013.73 1014.00 1014.34 1014.82 1014.96 1015.30 1015.55 1015.77 1016.06 1016.28 1016.42 1016.48 1016.63 1016.65 1016.71 1016.90 1017.13 1017.23 1017.32 1017.58 1017.61 1017.68 1018.00 1018.21 1018.39 1018.54 1018.57 1018.51 1018.21 1018.64 1019.21
1008.14 1009.84 1011.00 1011.30 1011.65 1012.13 1012.46 1012.71 1013.03 1013.29 1013.63 1013.85 1014.06 1014.27 1014.55 1015.15 1015.25 1015.68 1015.95 1016.13 1016.31 1016.53 1016.71 1016.88 1017.06 1017.13 1017.16 1017.30 1017.49 1017.69 1017.74 1017.94 1018.03 1017.97 1018.18 1018.42 1018.66 1018.81 1018.83 1018.74 1018.58 1019.39 1019.59
1008.21 1009.75 1010.87 1011.50 1011.75 1012.17 1012.64 1012.93 1013.25 1013.51 1013.95 1014.18 1014.41 1014.67 1014.96 1015.51 1015.61 1015.89 1016.23 1016.40 1016.63 1016.79 1016.97 1017.21 1017.48 1017.53 1017.54 1017.73 1017.88 1017.98 1018.13 1018.23 1018.10 1018.00 1017.83 1017.73 1018.62 1019.12 1019.16 1019.17 1019.56 1019.79 1019.91
1008.12 1009.59 1010.53 1011.66 1011.96 1012.35 1012.71 1013.06 1013.44 1013.73 1014.14 1014.48 1014.83 1015.10 1015.43 1015.71 1015.95 1016.20 1016.43 1016.62 1016.92 1017.10 1017.30 1017.44 1017.78 1017.77 1017.89 1018.06 1018.16 1018.33 1018.43 1018.28 1018.27 1018.25 1017.83 1017.69 1018.48 1019.48 1019.54 1019.70 1019.90 1020.08 1020.23
1008.22 1009.08 1010.81 1011.80 1012.12 1012.52 1012.91 1013.21 1013.57 1013.93 1014.36 1014.79 1015.16 1015.43 1015.71 1016.05 1016.37 1016.44 1016.75 1016.92 1017.18 1017.29 1017.57 1017.72 1017.99 1018.04 1018.18 1018.35 1018.45 1018.65 1018.60 1018.36 1018.31 1018.13 1017.03 1017.85 1018.54 1019.67 1019.82 1019.91 1020.14 1020.23 1020.12
1007.75 1008.80 1011.52 1012.00 1012.34 1012.72 1013.20 1013.52 1013.79 1014.16 1014.59 1014.99 1015.45 1015.81 1016.06 1016.26 1016.50 1016.80 1017.09 1017.25 1017.45 1017.49 1017.75 1017.93 1018.10 1018.34 1018.52 1018.65 1018.69 1018.92 1018.70 1018.38 1018.33 1017.13 1017.69 1018.02 1018.74 1019.81 1019.97 1019.86 1020.34 1020.51 1020.63
1007.53 1009.36 1011.47 1012.32 1012.73 1013.00 1013.35 1013.75 1014.07 1014.41 1014.76 1015.12 1015.52 1015.99 1016.28 1016.49 1016.82 1017.07 1017.35 1017.46 1017.51 1017.82 1017.97 1018.04 1018.26 1018.46 1018.71 1018.76 1018.85 1019.06 1018.87 1018.59 1018.07 1017.18 1017.61 1018.06 1019.41 1019.97 1020.10 1020.28 1020.57 1020.80 1020.93
1007.56 1009.79 1011.40 1012.58 1013.03 1013.41 1013.60 1013.95 1014.38 1014.68 1014.95 1015.30 1015.70 1016.05 1016.37 1016.62 1016.95 1017.24 1017.46 1017.67 1017.82 1017.98 1018.13 1018.22 1018.43 1018.63 1018.86 1018.93 1019.06 1019.18 1018.95 1018.72 1017.64 1017.28 1017.66 1018.56 1019.90 1020.17 1020.37 1020.57 1020.77 1020.92 1021.06
1007.81 1009.72 1011.35 1012.26 1013.10 1013.62 1013.93 1014.20 1014.52 1014.85 1015.14 1015.46 1015.78 1016.16 1016.49 1016.76 1016.96 1017.28 1017.51 1017.80 1017.99 1018.19 1018.26 1018.46 1018.58 1018.72 1018.99 1019.15 1019.26 1019.26 1019.08 1018.67 1018.29 1017.54 1017.39 1018.69 1020.01 1020.33 1020.55 1020.75 1020.88 1021.02 1021.15
1008.23 1009.66 1011.09 1011.92 1012.74 1013.33 1013.88 1014.43 1014.64 1014.91 1015.28 1015.58 1015.89 1016.26 1016.57 1016.86 1017.08 1017.30 1017.56 1017.86 1018.13 1018.28 1018.40 1018.60 1018.69 1018.80 1019.11 1019.29 1019.36 1019.28 1018.97 1018.39 1017.49 1017.47 1017.59 1019.00 1019.90 1020.24 1020.52 1020.85 1020.97 1021.10 1021.24
1008.51 1009.55 1010.72 1011.66 1012.48 1013.02 1013.53 1014.32 1014.90 1015.05 1015.34 1015.67 1015.93 1016.27 1016.62 1016.50 1016.93 1017.09 1017.29 1017.71 1018.11 1018.35 1018.48 1018.70 1018.72 1018.93 1019.17 1019.33 1019.34 1019.14 1018.91 1017.94 1016.62 1016.70 1017.54 1019.24 1019.89 1020.19 1020.47 1020.75 1020.99 1021.16 1021.27
1008.31 1009.16 1010.28 1011.26 1012.01 1012.62 1012.78 1013.94 1014.46 1014.76 1014.99 1015.40 1015.65 1015.99 1015.85 1015.61 1016.08 1016.60 1016.95 1017.67 1018.08 1018.33 1018.53 1018.68 1018.81 1018.99 1019.09 1018.19 1018.69 1018.78 1018.50 1017.43 1016.47 1016.80 1018.02 1019.02 1019.78 1020.16 1020.33 1020.59 1020.85 1021.10 1021.24
1008.30 1008.90 1009.88 1010.83 1011.48 1012.24 1012.07 1013.49 1014.00 1014.58 1014.99 1015.50 1015.69 1015.83 1015.59 1015.42 1016.15 1016.87 1017.16 1017.37 1017.96 1018.14 1018.18 1018.45 1018.67 1018.40 1017.90 1017.01 1017.03 1017.49 1017.38 1016.72 1016.54 1016.87 1018.24 1018.75 1019.56 1019.90 1020.15 1020.42 1020.66 1020.87 1021.08
1008.05 1008.65 1009.64 1010.47 1011.35 1012.29 1011.91 1012.85 1013.27 1013.28 1014.01 1015.14 1015.22 1015.90 1015.71 1015.87 1016.18 1016.64 1017.06 1016.91 1017.22 1017.29 1017.61 1017.44 1017.20 1017.57 1017.28 1017.02 1016.63 1016.84 1017.02 1016.73 1016.48 1016.75 1017.89 1018.35 1019.08 1019.62 1019.87 1020.14 1020.41 1020.61 1020.79
1007.73 1008.40 1009.17 1010.34 1011.13 1011.83 1011.78 1012.24 1012.57 1012.27 1012.61 1013.92 1014.68 1015.55 1015.88 1016.04 1016.21 1016.57 1016.74 1016.47 1016.46 1017.01 1017.57 1017.36 1016.98 1017.09 1017.38 1017.27 1017.45 1017.36 1017.19 1016.77 1016.96 1016.63 1017.45 1018.06 1018.49 1019.08 1019.58 1019.91 1020.16 1020.41 1020.54
1007.39 1008.08 1008.93 1009.90 1010.84 1011.47 1011.73 1012.04 1012.44 1012.25 1012.13 1012.71 1013.86 1014.28 1015.55 1015.28 1015.67 1016.12 1016.57 1016.25 1016.09 1016.83 1017.34 1017.30 1016.86 1016.85 1017.37 1017.40 1017.65 1017.37 1017.21 1016.86 1016.97 1017.49 1017.61 1018.13 1018.50 1018.55 1019.08 1019.52 1019.81 1020.07 1020.24
1007.16 1008.02 1008.61 1009.70 1010.44 1011.32 1011.78 1011.97 1012.06 1011.99 1012.34 1012.56 1012.92 1013.72 1014.75 1015.43 1015.64 1015.90 1016.46 1016.47 1016.31 1016.25 1016.96 1017.27 1017.24 1017.18 1017.46 1017.15 1017.31 1017.45 1017.41 1017.14 1016.72 1017.17 1017.30 1017.31 1018.13 1018.38 1018.44 1018.91 1019.32 1019.63 1019.85
1006.87 1007.84 1008.51 1009.32 1010.22 1011.19 1011.62 1011.86 1011.83 1011.80 1012.27 1012.11 1012.37 1013.04 1014.05 1014.62 1015.25 1015.61 1016.13 1015.85 1015.48 1016.10 1016.47 1016.47 1017.10 1017.13 1017.26 1016.96 1017.06 1017.11 1017.15 1016.98 1016.88 1017.13 1017.07 1016.97 1017.66 1017.61 1018.47 1018.37 1018.41 1019.00 1019.38
1006.74 1007.71 1008.46 1009.09 1010.16 1011.08 1011.20 1011.47 1011.80 1011.77 1011.89 1011.93 1011.90 1012.13 1013.24 1014.23 1014.79 1014.57 1014.32 1014.80 1015.02 1015.44 1015.67 1016.04 1016.27 1016.64 1016.54 1016.70 1016.67 1016.99 1016.97 1016.73 1016.59 1016.37 1016.72 1016.68 1016.68 1016.69 1017.48 1018.07 1018.29 1018.44 1018.71
1006.65 1007.45 1008.31 1008.93 1009.66 1010.79 1010.95 1011.27 1011.32 1011.37 1011.67 1011.56 1011.78 1012.00 1013.00 1013.61 1014.41 1014.67 1014.12 1014.19 1014.66 1014.95 1014.88 1015.41 1015.79 1015.96 1016.12 1016.41 1016.38 1016.03 1016.41 1016.44 1016.28 1016.18 1015.90 1015.86 1016.05 1016.35 1016.60 1016.95 1017.67 1017.74 1017.81
1006.32 1007.14 1008.13 1008.89 1009.41 1010.38 1010.77 1010.73 1010.65 1010.63 1010.96 1011.26 1011.33 1011.67 1012.16 1012.96 1013.64 1014.25 1013.94 1014.33 1014.79 1014.81 1014.90 1015.27 1015.79 1016.28 1016.36 1016.25 1016.11 1015.89 1015.60 1015.92 1015.96 1015.71 1015.34 1015.20 1015.41 1015.72 1015.81 1015.88 1016.33 1016.31 1016.33
1005.57 1006.61 1007.69 1008.62 1009.08 1010.04 1010.25 1010.21 1010.19 1010.15 1010.29 1010.77 1010.99 1011.23 1011.88 1012.52 1013.02 1013.40 1013.91 1013.75 1014.51 1015.09 1015.30 1015.21 1015.69 1015.86 1016.10 1016.03 1015.93 1015.52 1015.22 1015.23 1015.07 1015.23 1015.37 1015.17 1014.87 1014.75 1014.96 1015.30 1015.48 1015.86 1016.17
1004.94 1005.63 1007.03 1008.03 1008.73 1009.16 1009.57 1009.83 1010.06 1009.86 1010.00 1010.09 1010.34 1010.92 1011.62 1011.98 1012.45 1012.92 1013.23 1013.50 1013.85 1014.53 1014.86 1015.17 1015.91 1016.22 1015.28 1015.28 1015.71 1015.24 1014.74 1014.35 1013.84 1014.06 1014.56 1014.58 1014.46 1014.27 1014.51 1014.92 1014.89 1015.03 1015.44
1004.77 1005.16 1006.88 1007.53 1008.21 1008.70 1009.14 1008.80 1008.91 1008.96 1008.87 1009.10 1009.56 1009.80 1010.36 1011.06 1011.53 1012.11 1012.67 1012.98 1013.60 1013.83 1014.16 1014.69 1015.23 1015.51 1015.44 1015.07 1014.80 1015.14 1014.88 1014.98 1014.69 1014.38 1014.52 1014.92 1013.86 1014.33 1014.50 1014.54 1014.35 1014.50 1014.69
1005.12 1005.26 1006.57 1007.05 1007.47 1007.99 1008.51 1008.52 1008.40 1008.47 1008.37 1008.41 1008.68 1009.09 1009.72 1010.25 1010.74 1011.01 1011.53 1012.32 1012.81 1013.33 1013.28 1013.72 1014.21 1014.60 1014.65 1014.96 1014.91 1015.02 1015.11 1015.14 1015.61 1015.63 1015.12 1014.63 1014.28 1014.05 1014.15 1014.37 1014.02 1013.74 1014.00
1005.91 1005.60 1006.43 1006.87 1007.07 1007.57 1008.04 1008.38 1008.23 1007.96 1008.06 1007.87 1007.99 1008.17 1008.64 1009.24 1009.83 1010.38 1010.67 1011.27 1011.79 1012.16 1012.53 1012.88 1013.40 1013.87 1014.13 1014.13 1014.35 1014.75 1014.75 1014.87 1014.87 1014.95 1014.90 1014.56 1014.32 1013.84 1013.25 1013.84 1013.48 1013.48 1013.54
Thickness
5793 5789 5780 5780 5777 5773 5772 5771 5769 5770 5768 5767 5767 5769 5768 5766 5768 5766 5765 5765 5762 5762 5762 5763 5763 5763 5765 5764 5764 5764 5765 5764 5766 5767 5764 5764 5763 5763 5763 5764 5766 5762 5758
5807 5791 5782 5780 5776 5772 5770 5770 5767 5767 5766 5766 5766 5769 5766 5764 5768 5764 5763 5763 5762 5761 5761 5761 5760 5762 5763 5764 5763 5762 5765 5764 5765 5767 5765 5764 5763 5764 5764 5764 5765 5759 5758
5807 5793 5784 5780 5777 5774 5770 5769 5767 5766 5764 5763 5762 5761 5764 5762 5765 5763 5761 5761 5760 5761 5760 5759 5758 5759 5762 5761 5763 5763 5763 5764 5766 5768 5770 5771 5766 5764 5765 5764 5761 5759 5758
5810 5795 5787 5779 5777 5774 5771 5769 5767 5766 5763 5762 5760 5759 5760 5760 5761 5761 5761 5760 5758 5760 5759 5758 5757 5759 5760 5760 5762 5762 5763 5765 5767 5769 5772 5773 5769 5764 5765 5764 5761 5759 5757
5810 5801 5786 5778 5777 5774 5770 5768 5767 5765 5762 5759 5758 5759 5759 5758 5756 5758 5759 5758 5757 5758 5758 5757 5756 5758 5759 5759 5761 5761 5763 5767 5769 5772 5780 5774 5770 5763 5764 5764 5762 5761 5761
5816 5805 5782 5778 5776 5773 5769 5767 5766 5764 5761 5759 5755 5754 5756 5758 5758 5756 5756 5756 5754 5757 5757 5757 5756 5756 5756 5758 5760 5760 5764 5769 5771 5780 5777 5775 5769 5763 5763 5764 5761 5760 5759
5819 5803 5784 5776 5773 5771 5768 5765 5763 5761 5759 5758 5755 5752 5752 5754 5753 5753 5753 5754 5755 5755 5755 5757 5756 5756 5756 5758 5760 5760 5764 5768 5772 5781 5779 5776 5766 5763 5762 5762 5760 5759 5759
5820 5800 5785 5775 5771 5768 5767 5765 5761 5759 5757 5756 5753 5752 5751 5752 5751 5751 5751 5751 5753 5754 5754 5755 5756 5756 5756 5758 5758 5760 5764 5768 5776 5780 5779 5773 5764 5763 5762 5761 5760 5759 5759
5822 5803 5788 5779 5771 5767 5766 5764 5761 5758 5756 5755 5753 5751 5750 5750 5751 5750 5749 5749 5751 5751 5753 5754 5755 5756 5756 5757 5757 5759 5763 5768 5772 5778 5781 5773 5765 5762 5761 5761 5761 5760 5759
5820 5807 5793 5784 5776 5770 5766 5762 5761 5759 5756 5754 5752 5750 5749 5749 5749 5750 5749 5749 5748 5750 5751 5753 5754 5755 5755 5756 5757 5759 5764 5771 5778 5779 5780 5771 5766 5763 5762 5761 5761 5760 5759
5815 5808 5798 5788 5780 5774 5769 5763 5759 5758 5756 5753 5751 5750 5748 5751 5750 5750 5751 5750 5749 5749 5751 5752 5754 5754 5754 5755 5757 5760 5764 5773 5784 5786 5780 5771 5766 5764 5763 5762 5760 5760 5760
5811 5809 5802 5793 5785 5779 5776 5766 5762 5759 5757 5754 5751 5750 5753 5757 5755 5753 5752 5750 5749 5750 5750 5752 5753 5754 5755 5763 5761 5763 5766 5777 5786 5785 5776 5772 5767 5764 5764 5763 5762 5761 5761
5815 5812 5806 5798 5790 5783 5783 5770 5765 5760 5755 5749 5745 5748 5752 5757 5754 5751 5752 5750 5749 5750 5752 5754 5753 5757 5764 5773 5774 5772 5775 5782 5785 5784 5776 5774 5768 5766 5766 5765 5764 5763 5762
5817 5814 5808 5802 5793 5782 5784 5775 5771 5770 5762 5751 5748 5747 5751 5752 5754 5752 5752 5754 5754 5757 5757 5761 5765 5764 5769 5772 5777 5777 5777 5782 5786 5785 5778 5776 5772 5768 5767 5767 5766 5765 5765
5819 5817 5812 5803 5795 5787 5786 5781 5777 5778 5775 5764 5757 5750 5750 5752 5754 5753 5753 5757 5760 5759 5757 5763 5767 5769 5768 5770 5770 5773 5776 5780 5781 5785 5779 5778 5776 5772 5769 5767 5766 5765 5765
5826 5820 5815 5806 5798 5790 5787 5784 5780 5780 5780 5775 5766 5761 5753 5757 5755 5755 5753 5758 5762 5759 5759 5762 5768 5770 5768 5768 5768 5771 5775 5779 5779 5777 5777 5775 5774 5776 5772 5769 5767 5766 5766
5828 5822 5816 5807 5802 5793 5787 5785 5783 5783 5779 5777 5774 5767 5760 5756 5758 5758 5755 5758 5760 5762 5760 5762 5763 5766 5767 5770 5770 5769 5771 5775 5780 5778 5778 5779 5774 5775 5776 5773 5770 5769 5768
5830 5821 5819 5812 5803 5794 5789 5786 5785 5784 5780 5781 5779 5775 5768 5764 5761 5759 5757 5762 5766 5763 5761 5763 5762 5764 5766 5771 5770 5771 5772 5775 5776 5776 5778 5780 5777 5778 5774 5775 5776 5772 5769
5830 5822 5816 5813 5802 5794 5793 5789 5784 5784 5783 5782 5783 5782 5775 5768 5765 5768 5772 5770 5768 5767 5767 5767 5767 5765 5766 5767 5770 5770 5772 5776 5777 5780 5779 5780 5782 5782 5778 5775 5774 5774 5772
5828 5823 5817 5812 5806 5795 5794 5790 5788 5786 5784 5784 5782 5781 5774 5771 5766 5765 5772 5774 5771 5770 5773 5770 5768 5769 5768 5765 5767 5773 5773 5775 5777 5779 5783 5784 5783 5782 5780 5779 5776 5776 5777
5828 5821 5813 5807 5804 5797 5791 5788 5788 5785 5785 5784 5785 5782 5778 5772 5769 5766 5769 5770 5767 5770 5770 5769 5765 5760 5761 5765 5764 5766 5773 5775 5776 5780 5784 5787 5786 5785 5784 5785 5782 5782 5783
5827 5822 5813 5806 5804 5796 5794 5794 5794 5793 5791 5787 5786 5784 5779 5773 5770 5768 5766 5770 5765 5761 5762 5765 5760 5757 5757 5763 5758 5763 5758 5767 5776 5779 5780 5784 5789 5790 5789 5786 5785 5783 5780
5824 5823 5813 5806 5802 5800 5796 5794 5793 5796 5793 5789 5786 5781 5778 5776 5773 5769 5767 5768 5767 5762 5759 5759 5752 5749 5756 5764 5763 5763 5757 5756 5775 5782 5781 5785 5789 5792 5790 5786 5786 5786 5783
5820 5822 5808 5804 5800 5799 5795 5796 5794 5792 5790 5793 5789 5790 5787 5781 5778 5775 5771 5768 5766 5765 5763 5760 5755 5753 5757 5757 5767 5767 5770 5768 5758 5759 5776 5778 5762 5783 5786 5786 5787 5785 5784
5814 5813 5803 5800 5798 5796 5792 5792 5794 5792 5796 5797 5796 5792 5788 5786 5781 5780 5778 5773 5770 5767 5769 5766 5763 5760 5762 5758 5760 5760 5761 5764 5760 5753 5750 5765 5777 5781 5784 5785 5782 5788 5786
5801 5804 5797 5790 5789 5788 5786 5786 5786 5790 5790 5792 5794 5793 5791 5789 5786 5783 5783 5780 5776 5774 5772 5771 5768 5765 5763 5764 5764 5761 5758 5756 5758 5759 5756 5761 5763 5774 5785 5783 5788 5786 5783